{"data":{"norad_id":52544,"epoch":"2026-09-20T04:45:23.425056Z","epoch_age_seconds":89332,"freshness":"FRESH","line1":"1 52544U 22051M   26263.19818779  .00000243  00000+0  19591-4 0  9996","line2":"2 52544  53.1610 335.4510 0001160  84.1074 276.0060 15.31704154240807","mean_motion":15.31704154,"eccentricity":0.000116,"inclination_deg":53.161,"raan_deg":335.451,"arg_perigee_deg":84.1074,"mean_anomaly_deg":276.006,"bstar":1.9591e-5,"rev_number":24080,"period_min":94.012932996198,"perigee_km":469.93314410075,"apogee_km":471.52208069083,"semimajor_km":6848.8646123958,"source":"CELESTRAK","updated_at":"2026-09-20T09:00:40.060331Z"}}